Flag Weather past 2 weeks in Hay River, Northwest Territories, Canada

Now
-17 °F

Snow flurries. Passing clouds.


Feels Like: -33 °F
Forecast: -12 / -7 °F
Wind: 7 mph from West

Location: Hay River

Current Time: Nov 27, 2014 at 6:49:15 PM

Latest Report: Nov 27, 2014 at 6:00 PM


Visibility: 12 mi

Pressure: 30.58 "Hg

Humidity: 76%

Dew point: -22 °F

Location of Hay RiverLocation

Historic Weather in Hay River — Graph

°F

Hay River temperature yesterday

Maximum temperature yesterday: 3 °F (at 6:00 AM)
Minimum temperature yesterday: -8 °F (at 12:00 AM)
Average temperature yesterday: -4 °F

Past Weeks' High & Low Weather Summary

 TemperatureHumidityPressure
High23 °F (Nov 15, 11:00 PM)93% (Nov 13, 8:00 PM)30.64 "Hg (Nov 13, 8:00 PM)
Low-24 °F (Nov 25, 8:00 AM)68% (Nov 25, 7:00 AM)29.61 "Hg (Nov 20, 3:00 PM)
Average5 °F83%30.22 "Hg
* Reported Nov 12 5:00 PM — Nov 27 5:56 PM, Hay River, Weather by CustomWeather, © 2014

Note: Actual official high and low records may vary slightly from our data, if they occured in-between our weather recording intervals... More about our weather records

Advertising

Hay River weather history for previous 24 hours

 ConditionsComfort  
Time TempWeatherWind HumidityBarometerVisibility
5:56 PM
Nov 27
-17 °FSnow flurries. Passing clouds.6 mph76%30.58 "Hg12 mi
5:00 PM-15 °FPassing clouds.7 mph76%30.59 "Hg15 mi
4:00 PM-15 °FPassing clouds.6 mph76%30.60 "Hg15 mi
3:00 PM-11 °FPassing clouds.7 mph70%30.60 "Hg15 mi
2:00 PM-11 °FPassing clouds.8 mph70%30.60 "Hg15 mi
1:00 PM-11 °FPassing clouds.10 mph70%30.61 "Hg15 mi
12:00 PM-13 °FPassing clouds.9 mph76%30.63 "Hg15 mi
11:00 AM-13 °FPassing clouds.10 mph69%30.63 "Hg15 mi
10:00 AM-17 °FPassing clouds.9 mph76%30.63 "Hg15 mi
9:00 AM-15 °FPassing clouds.10 mph76%30.62 "Hg15 mi
8:00 AM-15 °FPassing clouds.10 mph76%30.63 "Hg15 mi
7:00 AM-18 °FClear.8 mph75%30.62 "Hg15 mi
6:00 AM-17 °FClear.7 mph69%30.61 "Hg15 mi
5:00 AM-15 °FPassing clouds.9 mph76%30.62 "Hg15 mi
4:00 AM-13 °FPassing clouds.10 mph76%30.62 "Hg15 mi
3:00 AM-13 °FPassing clouds.7 mph76%30.63 "Hg15 mi
2:00 AM-8 °FPassing clouds.14 mph77%30.62 "Hg15 mi
1:00 AM-8 °FPassing clouds.12 mph77%30.62 "Hg15 mi
12:00 AM-8 °FPassing clouds.14 mph77%30.61 "Hg15 mi
11:00 PM
Nov 26
-6 °FPassing clouds.16 mph70%30.60 "Hg15 mi
10:00 PM-6 °FPassing clouds.17 mph77%30.60 "Hg15 mi
9:00 PM-6 °FPassing clouds.16 mph77%30.58 "Hg15 mi
8:00 PM-4 °FPassing clouds.17 mph77%30.56 "Hg15 mi
7:00 PM-6 °FPassing clouds.13 mph84%30.56 "Hg15 mi
6:00 PM-4 °FPassing clouds.14 mph77%30.55 "Hg15 mi
Weather by CustomWeather, © 2014

See weather overviewHow to use our weather pages